Change the Weather History Date:

Friday, August 2, 2013

  Actual Average Record
Temperature  
Mean Temperature 72 °F -  
Max Temperature 87 °F 79 °F 89 °F (2011)
Min Temperature 57 °F 58 °F 51 °F (2014)
Cooling Degree Days 7    
Growing Degree Days 22 (Base 50)    
Moisture  
Dew Point 49 °F    
Average Humidity 47    
Maximum Humidity 82    
Minimum Humidity 27    
Precipitation  
Precipitation 0.00 in - - ()
Sea Level Pressure  
Sea Level Pressure 30.10 in    
Wind  
Wind Speed 5 mph ()    
Max Wind Speed 9 mph    
Max Gust Speed -    
Visibility 8.6 miles    
Events      
Averages and records for this station are not official NWS values.
T = Trace of Precipitation, MM = Missing Value Source: Averaged Metar Reports

Daily Weather History Graph

Daily Weather History Graph

Search for Another Location

Airport or City:

Trip Planner

Search our weather history database for the weather conditions in past years. The results will help you decide how hot, cold, wet, or windy it might be!

Date:

Astronomy

Aug. 02, 2013 Rise Set
Actual Time 7:20 AM CDT 8:23 PM CDT
Civil Twilight 6:56 AM CDT 8:47 PM CDT
Nautical Twilight 6:28 AM CDT 9:15 PM CDT
Astronomical Twilight 6:00 AM CDT 9:43 PM CDT
Moon 3:48 AM CDT (8/2) 5:17 PM CDT (8/2)
Length of Visible Light 13h 50m
Length of Day
13h 03m
Waning Crescent, 15% of the Moon is Illuminated
Aug 2
Waning Crescent
Aug 6
New
Aug 14
First Quarter
Aug 20
Full
Aug 28
Last Quarter

Hourly Weather History & Observations

Time (CDT) Temp. Dew Point Humidity Pressure Visibility Wind Dir Wind Speed Gust Speed Precip Events Conditions
12:47 AM 66.2 °F 48.2 °F 52% 29.84 in 8.0 mi East 6.9 mph - N/A   Clear
1:44 AM 64.4 °F 44.6 °F 49% 30.26 in 8.0 mi NE 8.1 mph - N/A   Clear
2:47 AM 60.8 °F 46.4 °F 59% 30.25 in 8.0 mi ENE 6.9 mph - N/A   Clear
3:50 AM 60.8 °F 46.4 °F 59% 29.81 in 8.0 mi ENE 5.8 mph - N/A   Clear
4:45 AM 57.2 °F 48.2 °F 72% 30.26 in 8.0 mi NE 5.8 mph - N/A   Clear
5:50 AM 57.2 °F 50.0 °F 77% 30.25 in 8.0 mi Calm Calm - N/A   Clear
6:50 AM 60.8 °F 51.8 °F 72% 29.83 in 8.0 mi NE 6.9 mph - N/A   Partly Cloudy
7:45 AM 57.2 °F 51.8 °F 82% 30.26 in 7.0 mi Calm Calm - N/A   Scattered Clouds
8:52 AM 64.4 °F 51.8 °F 64% 30.29 in 8.0 mi West 3.5 mph - N/A   Scattered Clouds
9:47 AM 69.8 °F 51.8 °F 53% 29.94 in 8.0 mi SW 3.5 mph - N/A   Scattered Clouds
10:48 AM 75.2 °F 51.8 °F 44% 30.29 in 8.0 mi Calm Calm - N/A   Scattered Clouds
11:48 AM 78.8 °F 51.8 °F 39% 30.29 in 9.0 mi SW 5.8 mph - N/A   Scattered Clouds
12:51 PM 82.4 °F 48.2 °F 30% 29.84 in 9.0 mi South 8.1 mph - N/A   Scattered Clouds
1:45 PM 82.4 °F 50.0 °F 32% 30.27 in 9.0 mi Calm Calm - N/A   Scattered Clouds
3:16 PM 86.0 °F 50.0 °F 29% 30.21 in 10.0 mi West 4.6 mph - N/A   Scattered Clouds
3:47 PM 87.8 °F 50.0 °F 27% 29.71 in 10.0 mi South 5.8 mph - N/A   Scattered Clouds
4:45 PM 86.0 °F 48.2 °F 27% 30.18 in 10.0 mi SSW 4.6 mph - N/A   Scattered Clouds
5:41 PM 82.4 °F 50.0 °F 32% 30.15 in 10.0 mi WSW 5.8 mph - N/A   Mostly Cloudy
6:47 PM 84.2 °F 48.2 °F 29% 29.74 in 10.0 mi SW 4.6 mph - N/A   Scattered Clouds
7:46 PM 80.6 °F 48.2 °F 32% 30.15 in 10.0 mi WSW 5.8 mph - N/A   Scattered Clouds
8:43 PM 75.2 °F 50.0 °F 41% 30.18 in 8.0 mi Calm Calm - N/A   Scattered Clouds
9:41 PM 71.6 °F 50.0 °F 46% 29.81 in 8.0 mi ENE 6.9 mph - N/A   Scattered Clouds
10:40 PM 69.8 °F 48.2 °F 46% 30.24 in 8.0 mi ENE 9.2 mph - N/A   Scattered Clouds
11:43 PM 69.8 °F 46.4 °F 43% 30.24 in 8.0 mi East 6.9 mph - N/A   Scattered Clouds